Location: Unspecified
(37.6100°N, 2.7800°W)
Time: 21:07:49
(UTC+00:00)

Tiangong 2 - Visible Passes

Search period start: 20 March 2019 00:00
Search period end: 30 March 2019 00:00
Orbit: 379 x 390 km, 42.8° (Epoch: 19 March)

Date Brightness Start Highest point End Pass type
(mag) Time Alt. Az. Time Alt. Az. Time Alt. Az.
20 Mar 1.8 05:03:50 22° NW 05:05:35 50° NNE 05:08:40 10° E visible
21 Mar 3.3 04:07:14 25° ENE 04:07:14 25° ENE 04:08:59 10° E visible
21 Mar 1.2 05:39:43 10° WNW 05:42:51 60° SSW 05:45:59 10° SE visible
22 Mar 1.1 04:42:56 61° NW 04:43:23 78° NNE 04:46:34 10° ESE visible
23 Mar 4.3 03:46:32 13° E 03:46:32 13° E 03:46:57 10° E visible
23 Mar 2.0 05:18:47 18° W 05:20:32 32° SSW 05:23:24 10° SSE visible
24 Mar 2.7 04:22:31 28° SE 04:22:31 28° SE 04:24:14 10° SE visible
25 Mar 3.0 04:58:42 16° SSW 04:58:42 16° SSW 05:00:15 10° S visible
28 Mar 3.6 20:06:40 10° SSW 20:07:07 13° SSW 20:07:07 13° SSW visible
29 Mar 3.0 19:08:11 10° S 19:09:57 14° SE 19:11:15 12° ESE visible
29 Mar 4.1 20:43:14 10° WSW 20:43:31 12° WSW 20:43:31 12° WSW visible
